Time,TemperatureF,DewpointF,PressureIn,WindDirection,WindDirectionDegrees,WindSpeedMPH,WindSpeedGustMPH,Humidity,HourlyPrecipIn,Conditions,Clouds,dailyrainin,SoftwareType,DateUTC
2013-01-24 00:01:00,12.2,4.3,30.66,WSW,255,6.0,10.0,70,0.00,,---,0.00,VWS V14.01,2013-01-24 06:01:00,
2013-01-24 00:06:00,12.1,4.5,30.66,WSW,244,3.0,9.0,71,0.00,,---,0.00,VWS V14.01,2013-01-24 06:06:00,
2013-01-24 00:11:00,11.9,4.3,30.65,SW,231,3.0,9.0,71,0.00,,---,0.00,VWS V14.01,2013-01-24 06:11:00,
2013-01-24 00:16:00,11.9,4.6,30.65,NW,326,2.0,9.0,72,0.00,,---,0.00,VWS V14.01,2013-01-24 06:16:00,
2013-01-24 00:21:00,11.8,4.5,30.66,WSW,246,3.0,9.0,72,0.00,,---,0.00,VWS V14.01,2013-01-24 06:21:00,
2013-01-24 00:26:00,11.7,4.7,30.66,WSW,245,4.0,9.0,73,0.00,,---,0.00,VWS V14.01,2013-01-24 06:26:00,
2013-01-24 00:31:00,11.6,4.6,30.66,West,276,6.0,9.0,73,0.00,,---,0.00,VWS V14.01,2013-01-24 06:31:00,
2013-01-24 00:36:00,11.5,4.8,30.66,SSW,206,2.0,8.0,74,0.00,,---,0.00,VWS V14.01,2013-01-24 06:36:00,
2013-01-24 00:41:00,11.4,4.7,30.65,West,261,6.0,8.0,74,0.00,,---,0.00,VWS V14.01,2013-01-24 06:41:00,
2013-01-24 00:46:00,11.4,5.0,30.65,West,270,4.0,8.0,75,0.00,,---,0.00,VWS V14.01,2013-01-24 06:46:00,
2013-01-24 00:51:00,11.3,4.9,30.65,West,276,6.0,8.0,75,0.00,,---,0.00,VWS V14.01,2013-01-24 06:51:00,
2013-01-24 00:56:00,11.2,4.8,30.65,SW,236,3.0,11.0,75,0.00,,---,0.00,VWS V14.01,2013-01-24 06:56:00,
2013-01-24 01:01:00,11.1,5.0,30.64,West,259,4.0,11.0,76,0.00,,---,0.00,VWS V14.01,2013-01-24 07:01:00,
2013-01-24 01:06:00,11.0,4.9,30.65,WSW,238,2.0,6.0,76,0.00,,---,0.00,VWS V14.01,2013-01-24 07:06:00,
2013-01-24 01:11:00,10.9,5.1,30.64,WSW,251,4.0,11.0,77,0.00,,---,0.00,VWS V14.01,2013-01-24 07:11:00,
2013-01-24 01:16:00,10.8,5.0,30.65,SW,215,2.0,11.0,77,0.00,,---,0.00,VWS V14.01,2013-01-24 07:16:00,
2013-01-24 01:22:00,10.7,4.9,30.65,WSW,238,2.0,11.0,77,0.00,,---,0.00,VWS V14.01,2013-01-24 07:22:00,
2013-01-24 01:26:00,10.6,5.1,30.65,SW,231,2.0,11.0,78,0.00,,---,0.00,VWS V14.01,2013-01-24 07:26:00,
2013-01-24 01:31:00,10.4,4.9,30.65,West,267,5.0,11.0,78,0.00,,---,0.00,VWS V14.01,2013-01-24 07:31:00,
2013-01-24 01:36:00,10.4,4.9,30.66,SW,229,2.0,9.0,78,0.00,,---,0.00,VWS V14.01,2013-01-24 07:36:00,
2013-01-24 01:42:00,10.3,4.8,30.65,South,191,2.0,9.0,78,0.00,,---,0.00,VWS V14.01,2013-01-24 07:42:00,
2013-01-24 01:47:00,10.1,4.6,30.65,West,270,3.0,9.0,78,0.00,,---,0.00,VWS V14.01,2013-01-24 07:47:00,
2013-01-24 01:52:00,10.0,4.8,30.65,WSW,244,1.0,9.0,79,0.00,,---,0.00,VWS V14.01,2013-01-24 07:52:00,
2013-01-24 01:57:00,9.9,4.7,30.65,WSW,258,7.0,13.0,79,0.00,,---,0.00,VWS V14.01,2013-01-24 07:57:00,
2013-01-24 02:02:00,9.9,4.7,30.65,SW,217,2.0,13.0,79,0.00,,---,0.00,VWS V14.01,2013-01-24 08:02:00,
2013-01-24 02:07:00,9.8,4.6,30.65,SSW,196,3.0,8.0,79,0.00,,---,0.00,VWS V14.01,2013-01-24 08:07:00,
2013-01-24 02:12:00,9.7,4.5,30.65,West,276,3.0,8.0,79,0.00,,---,0.00,VWS V14.01,2013-01-24 08:12:00,
2013-01-24 02:17:00,9.6,4.4,30.65,West,265,6.0,8.0,79,0.00,,---,0.00,VWS V14.01,2013-01-24 08:17:00,
2013-01-24 02:22:00,9.5,4.3,30.66,SW,235,2.0,9.0,79,0.00,,---,0.00,VWS V14.01,2013-01-24 08:22:00,
2013-01-24 02:27:00,9.5,4.6,30.66,West,267,8.0,10.0,80,0.00,,---,0.00,VWS V14.01,2013-01-24 08:27:00,
2013-01-24 02:32:00,9.4,4.5,30.66,SW,235,0.0,10.0,80,0.00,,---,0.00,VWS V14.01,2013-01-24 08:32:00,
2013-01-24 02:37:00,9.3,4.4,30.66,SW,231,1.0,9.0,80,0.00,,---,0.00,VWS V14.01,2013-01-24 08:37:00,
2013-01-24 02:42:00,9.2,4.3,30.66,West,279,3.0,9.0,80,0.00,,---,0.00,VWS V14.01,2013-01-24 08:42:00,
2013-01-24 02:47:00,9.1,4.2,30.66,West,269,5.0,9.0,80,0.00,,---,0.00,VWS V14.01,2013-01-24 08:47:00,
2013-01-24 02:52:00,9.1,4.2,30.66,NW,312,2.0,9.0,80,0.00,,---,0.00,VWS V14.01,2013-01-24 08:52:00,
2013-01-24 02:57:00,9.0,4.1,30.66,West,272,5.0,11.0,80,0.00,,---,0.00,VWS V14.01,2013-01-24 08:57:00,
2013-01-24 03:02:00,8.9,4.3,30.65,SW,228,4.0,11.0,81,0.00,,---,0.00,VWS V14.01,2013-01-24 09:02:00,
2013-01-24 03:07:00,8.8,4.2,30.64,West,276,9.0,10.0,81,0.00,,---,0.00,VWS V14.01,2013-01-24 09:07:00,
2013-01-24 03:12:00,8.7,4.1,30.64,SSW,197,0.0,10.0,81,0.00,,---,0.00,VWS V14.01,2013-01-24 09:12:00,
2013-01-24 03:17:00,8.6,4.0,30.65,West,273,5.0,12.0,81,0.00,,---,0.00,VWS V14.01,2013-01-24 09:17:00,
2013-01-24 03:22:00,8.6,4.2,30.65,SW,228,2.0,12.0,82,0.00,,---,0.00,VWS V14.01,2013-01-24 09:22:00,
2013-01-24 03:27:00,8.5,4.2,30.64,WSW,251,5.0,12.0,82,0.00,,---,0.00,VWS V14.01,2013-01-24 09:27:00,
2013-01-24 03:32:00,8.4,4.1,30.64,WSW,255,4.0,12.0,82,0.00,,---,0.00,VWS V14.01,2013-01-24 09:32:00,
2013-01-24 03:37:00,8.3,4.0,30.63,WNW,303,5.0,10.0,82,0.00,,---,0.00,VWS V14.01,2013-01-24 09:37:00,
2013-01-24 03:42:00,8.3,4.0,30.63,WSW,251,4.0,10.0,82,0.00,,---,0.00,VWS V14.01,2013-01-24 09:42:00,
2013-01-24 03:47:00,8.2,4.1,30.63,SW,224,2.0,10.0,83,0.00,,---,0.00,VWS V14.01,2013-01-24 09:47:00,
2013-01-24 03:52:00,8.2,4.1,30.62,WNW,300,4.0,10.0,83,0.00,,---,0.00,VWS V14.01,2013-01-24 09:52:00,
2013-01-24 03:57:00,8.3,4.2,30.62,West,267,3.0,10.0,83,0.00,,---,0.00,VWS V14.01,2013-01-24 09:57:00,
2013-01-24 04:02:00,8.3,4.2,30.62,West,270,4.0,10.0,83,0.00,,---,0.00,VWS V14.01,2013-01-24 10:02:00,
2013-01-24 04:07:00,8.3,4.2,30.62,NW,314,5.0,7.0,83,0.00,,---,0.00,VWS V14.01,2013-01-24 10:07:00,
2013-01-24 04:12:00,8.2,4.1,30.62,West,265,4.0,10.0,83,0.00,,---,0.00,VWS V14.01,2013-01-24 10:12:00,
2013-01-24 04:17:00,8.2,3.8,30.62,WNW,289,3.0,10.0,82,0.00,,---,0.00,VWS V14.01,2013-01-24 10:17:00,
2013-01-24 04:22:00,8.1,3.8,30.62,WNW,299,3.0,10.0,82,0.00,,---,0.00,VWS V14.01,2013-01-24 10:22:00,
2013-01-24 04:27:00,8.1,3.5,30.62,WNW,284,4.0,10.0,81,0.00,,---,0.00,VWS V14.01,2013-01-24 10:27:00,
2013-01-24 04:32:00,8.1,3.5,30.62,WNW,294,3.0,10.0,81,0.00,,---,0.00,VWS V14.01,2013-01-24 10:32:00,
2013-01-24 04:37:00,8.0,3.4,30.62,West,274,2.0,10.0,81,0.00,,---,0.00,VWS V14.01,2013-01-24 10:37:00,
2013-01-24 04:42:00,8.0,3.4,30.62,West,281,3.0,10.0,81,0.00,,---,0.00,VWS V14.01,2013-01-24 10:42:00,
2013-01-24 04:47:00,8.0,3.4,30.63,WSW,254,4.0,10.0,81,0.00,,---,0.00,VWS V14.01,2013-01-24 10:47:00,
2013-01-24 04:52:00,7.9,3.3,30.62,NW,304,4.0,10.0,81,0.00,,---,0.00,VWS V14.01,2013-01-24 10:52:00,
2013-01-24 04:57:00,7.8,3.2,30.63,WSW,256,1.0,10.0,81,0.00,,---,0.00,VWS V14.01,2013-01-24 10:57:00,
2013-01-24 05:02:00,7.7,2.8,30.62,SW,235,3.0,10.0,80,0.00,,---,0.00,VWS V14.01,2013-01-24 11:02:00,
2013-01-24 05:07:00,7.6,2.2,30.62,West,270,5.0,8.0,78,0.00,,---,0.00,VWS V14.01,2013-01-24 11:07:00,
2013-01-24 05:12:00,7.4,2.0,30.62,West,277,2.0,8.0,78,0.00,,---,0.00,VWS V14.01,2013-01-24 11:12:00,
2013-01-24 05:17:00,7.3,1.9,30.62,West,273,5.0,8.0,78,0.00,,---,0.00,VWS V14.01,2013-01-24 11:17:00,
2013-01-24 05:22:00,7.3,1.9,30.62,West,281,3.0,8.0,78,0.00,,---,0.00,VWS V14.01,2013-01-24 11:22:00,
2013-01-24 05:27:00,7.2,1.8,30.64,SW,222,2.0,8.0,78,0.00,,---,0.00,VWS V14.01,2013-01-24 11:27:00,
2013-01-24 05:32:00,7.2,2.1,30.64,North,358,4.0,8.0,79,0.00,,---,0.00,VWS V14.01,2013-01-24 11:32:00,
2013-01-24 05:37:00,7.1,2.0,30.63,WNW,296,5.0,7.0,79,0.00,,---,0.00,VWS V14.01,2013-01-24 11:37:00,
2013-01-24 05:42:00,6.9,2.0,30.63,West,265,3.0,8.0,80,0.00,,---,0.00,VWS V14.01,2013-01-24 11:42:00,
2013-01-24 05:47:00,6.8,2.0,30.63,WNW,294,4.0,8.0,80,0.00,,---,0.00,VWS V14.01,2013-01-24 11:47:00,
2013-01-24 05:52:00,6.8,2.2,30.63,WSW,239,1.0,9.0,81,0.00,,---,0.00,VWS V14.01,2013-01-24 11:52:00,
2013-01-24 05:57:00,6.7,2.1,30.62,WSW,253,3.0,9.0,81,0.00,,---,0.00,VWS V14.01,2013-01-24 11:57:00,
2013-01-24 06:02:00,6.7,2.4,30.62,NW,321,1.0,9.0,82,0.00,,---,0.00,VWS V14.01,2013-01-24 12:02:00,
2013-01-24 06:07:00,6.6,2.3,30.62,SW,214,1.0,6.0,82,0.00,,---,0.00,VWS V14.01,2013-01-24 12:07:00,
2013-01-24 06:12:00,6.6,2.5,30.62,West,259,1.0,6.0,83,0.00,,---,0.00,VWS V14.01,2013-01-24 12:12:00,
2013-01-24 06:17:00,6.6,2.5,30.61,WNW,294,5.0,6.0,83,0.00,,---,0.00,VWS V14.01,2013-01-24 12:17:00,
2013-01-24 06:22:00,6.5,2.5,30.61,WNW,294,3.0,7.0,83,0.00,,---,0.00,VWS V14.01,2013-01-24 12:22:00,
2013-01-24 06:27:00,6.4,2.3,30.61,West,262,4.0,7.0,83,0.00,,---,0.00,VWS V14.01,2013-01-24 12:27:00,
2013-01-24 06:32:00,6.3,2.2,30.60,NW,310,3.0,8.0,83,0.00,,---,0.00,VWS V14.01,2013-01-24 12:32:00,
2013-01-24 06:37:00,6.3,2.5,30.60,NNE,23,1.0,7.0,84,0.00,,---,0.00,VWS V14.01,2013-01-24 12:37:00,
2013-01-24 06:42:00,6.2,2.4,30.61,WNW,288,2.0,8.0,84,0.00,,---,0.00,VWS V14.01,2013-01-24 12:42:00,
2013-01-24 06:47:00,6.2,2.2,30.61,West,277,3.0,8.0,83,0.00,,---,0.00,VWS V14.01,2013-01-24 12:47:00,
2013-01-24 06:51:00,6.0,2.0,30.61,WNW,297,4.0,8.0,83,0.00,,---,0.00,VWS V14.01,2013-01-24 12:51:00,
2013-01-24 06:56:00,5.8,1.5,30.61,WNW,301,1.0,8.0,82,0.00,,---,0.00,VWS V14.01,2013-01-24 12:56:00,
2013-01-24 07:01:00,5.6,1.0,30.61,North,356,1.0,8.0,81,0.00,,---,0.00,VWS V14.01,2013-01-24 13:01:00,
2013-01-24 07:06:00,5.5,0.7,30.61,West,267,1.0,6.0,80,0.00,,---,0.00,VWS V14.01,2013-01-24 13:06:00,
2013-01-24 07:11:00,5.5,0.7,30.61,NNE,23,1.0,6.0,80,0.00,,---,0.00,VWS V14.01,2013-01-24 13:11:00,
2013-01-24 07:16:00,5.4,0.6,30.60,North,11,1.0,6.0,80,0.00,,---,0.00,VWS V14.01,2013-01-24 13:16:00,
2013-01-24 07:21:00,5.4,0.9,30.60,West,263,1.0,6.0,81,0.00,,---,0.00,VWS V14.01,2013-01-24 13:21:00,
2013-01-24 07:26:00,5.2,0.6,30.61,NNW,339,1.0,6.0,81,0.00,,---,0.00,VWS V14.01,2013-01-24 13:26:00,
2013-01-24 07:31:00,5.2,0.9,30.60,North,357,1.0,6.0,82,0.00,,---,0.00,VWS V14.01,2013-01-24 13:31:00,
2013-01-24 07:36:00,5.2,0.9,30.60,NE,54,3.0,6.0,82,0.00,,---,0.00,VWS V14.01,2013-01-24 13:36:00,
2013-01-24 07:41:00,5.1,0.0,30.60,NNE,13,3.0,6.0,79,0.00,,---,0.00,VWS V14.01,2013-01-24 13:41:00,
2013-01-24 07:46:00,5.0,-0.1,30.60,ESE,105,2.0,6.0,79,0.00,,---,0.00,VWS V14.01,2013-01-24 13:46:00,
2013-01-24 07:51:00,4.9,-0.2,30.60,NW,304,3.0,6.0,79,0.00,,---,0.00,VWS V14.01,2013-01-24 13:51:00,
2013-01-24 07:56:00,4.9,0.1,30.61,WNW,291,3.0,6.0,80,0.00,,---,0.00,VWS V14.01,2013-01-24 13:56:00,
2013-01-24 08:01:00,4.8,-0.3,30.60,WNW,301,2.0,7.0,79,0.00,,---,0.00,VWS V14.01,2013-01-24 14:01:00,
2013-01-24 08:06:00,4.8,-0.5,30.61,NW,319,3.0,7.0,78,0.00,,---,0.00,VWS V14.01,2013-01-24 14:06:00,
2013-01-24 08:11:00,4.8,-0.5,30.61,NNE,23,1.0,7.0,78,0.00,,---,0.00,VWS V14.01,2013-01-24 14:11:00,
2013-01-24 08:16:00,4.9,-0.4,30.62,NNW,338,2.0,7.0,78,0.00,,---,0.00,VWS V14.01,2013-01-24 14:16:00,
2013-01-24 08:21:00,5.1,-0.2,30.61,North,356,0.0,7.0,78,0.00,,---,0.00,VWS V14.01,2013-01-24 14:21:00,
2013-01-24 08:26:00,5.2,-0.4,30.60,NNW,333,1.0,8.0,77,0.00,,---,0.00,VWS V14.01,2013-01-24 14:26:00,
2013-01-24 08:31:00,5.4,0.0,30.60,NW,318,1.0,8.0,78,0.00,,---,0.00,VWS V14.01,2013-01-24 14:31:00,
2013-01-24 08:36:00,5.4,-0.2,30.60,NW,315,2.0,8.0,77,0.00,,---,0.00,VWS V14.01,2013-01-24 14:36:00,
2013-01-24 08:41:00,5.5,0.1,30.60,WNW,303,1.0,9.0,78,0.00,,---,0.00,VWS V14.01,2013-01-24 14:41:00,
2013-01-24 08:46:00,5.6,0.2,30.61,NW,315,4.0,9.0,78,0.00,,---,0.00,VWS V14.01,2013-01-24 14:46:00,
2013-01-24 08:51:00,5.6,0.0,30.61,North,352,3.0,10.0,77,0.00,,---,0.00,VWS V14.01,2013-01-24 14:51:00,
2013-01-24 08:56:00,5.8,0.2,30.60,NNW,331,1.0,10.0,77,0.00,,---,0.00,VWS V14.01,2013-01-24 14:56:00,
2013-01-24 09:01:00,5.9,0.3,30.60,NNW,334,6.0,10.0,77,0.00,,---,0.00,VWS V14.01,2013-01-24 15:01:00,
2013-01-24 09:06:00,5.9,0.3,30.61,West,272,5.0,6.0,77,0.00,,---,0.00,VWS V14.01,2013-01-24 15:06:00,
2013-01-24 09:11:00,5.9,0.0,30.61,North,350,2.0,9.0,76,0.00,,---,0.00,VWS V14.01,2013-01-24 15:11:00,
2013-01-24 09:16:00,5.9,0.0,30.60,North,349,4.0,9.0,76,0.00,,---,0.00,VWS V14.01,2013-01-24 15:16:00,
2013-01-24 09:21:00,6.0,0.3,30.60,NW,326,7.0,10.0,77,0.00,,---,0.00,VWS V14.01,2013-01-24 15:21:00,
2013-01-24 09:26:00,6.0,0.1,30.60,NW,322,3.0,10.0,76,0.00,,---,0.00,VWS V14.01,2013-01-24 15:26:00,
2013-01-24 09:31:00,6.1,0.4,30.59,NNE,19,4.0,10.0,77,0.00,,---,0.00,VWS V14.01,2013-01-24 15:31:00,
2013-01-24 09:36:00,6.1,0.4,30.60,ESE,119,0.0,8.0,77,0.00,,---,0.00,VWS V14.01,2013-01-24 15:36:00,
2013-01-24 09:41:00,6.4,0.7,30.61,North,2,2.0,8.0,77,0.00,,---,0.00,VWS V14.01,2013-01-24 15:41:00,
2013-01-24 09:46:00,6.5,0.6,30.62,NNW,333,6.0,10.0,76,0.00,,---,0.00,VWS V14.01,2013-01-24 15:46:00,
2013-01-24 09:51:00,6.3,0.1,30.62,NNW,335,6.0,10.0,75,0.00,,---,0.00,VWS V14.01,2013-01-24 15:51:00,
2013-01-24 09:56:00,6.5,0.6,30.62,North,2,2.0,10.0,76,0.00,,---,0.00,VWS V14.01,2013-01-24 15:56:00,
2013-01-24 10:01:00,6.7,0.8,30.61,North,3,2.0,10.0,76,0.00,,---,0.00,VWS V14.01,2013-01-24 16:01:00,
2013-01-24 10:06:00,7.1,1.1,30.61,North,349,2.0,5.0,76,0.00,,---,0.00,VWS V14.01,2013-01-24 16:06:00,
2013-01-24 10:11:00,7.1,0.6,30.60,NNW,338,5.0,11.0,74,0.00,,---,0.00,VWS V14.01,2013-01-24 16:11:00,
2013-01-24 10:16:00,7.2,1.0,30.60,NNW,331,5.0,11.0,75,0.00,,---,0.00,VWS V14.01,2013-01-24 16:16:00,
2013-01-24 10:21:00,7.4,0.9,30.61,NNW,348,3.0,11.0,74,0.00,,---,0.00,VWS V14.01,2013-01-24 16:21:00,
2013-01-24 10:26:00,7.4,0.9,30.61,NNW,339,6.0,11.0,74,0.00,,---,0.00,VWS V14.01,2013-01-24 16:26:00,
2013-01-24 10:31:00,7.8,1.2,30.60,North,350,3.0,11.0,74,0.00,,---,0.00,VWS V14.01,2013-01-24 16:31:00,
2013-01-24 10:36:00,7.8,1.0,30.60,NW,319,3.0,7.0,73,0.00,,---,0.00,VWS V14.01,2013-01-24 16:36:00,
2013-01-24 10:41:00,7.9,0.8,30.59,NW,310,4.0,8.0,72,0.00,,---,0.00,VWS V14.01,2013-01-24 16:41:00,
2013-01-24 10:46:00,8.3,1.1,30.60,East,82,3.0,8.0,72,0.00,,---,0.00,VWS V14.01,2013-01-24 16:46:00,
2013-01-24 10:51:00,8.7,1.5,30.59,WNW,303,3.0,8.0,72,0.00,,---,0.00,VWS V14.01,2013-01-24 16:51:00,
2013-01-24 10:56:00,8.8,1.6,30.59,East,82,1.0,8.0,72,0.00,,---,0.00,VWS V14.01,2013-01-24 16:56:00,
2013-01-24 11:01:00,8.9,1.4,30.59,WNW,301,3.0,9.0,71,0.00,,---,0.00,VWS V14.01,2013-01-24 17:01:00,
2013-01-24 11:06:00,9.0,1.2,30.58,North,352,7.0,10.0,70,0.00,,---,0.00,VWS V14.01,2013-01-24 17:06:00,
2013-01-24 11:11:00,9.1,1.6,30.57,NW,310,4.0,10.0,71,0.00,,---,0.00,VWS V14.01,2013-01-24 17:11:00,
2013-01-24 11:16:00,9.4,1.9,30.58,WNW,290,1.0,10.0,71,0.00,,---,0.00,VWS V14.01,2013-01-24 17:16:00,
2013-01-24 11:21:00,9.5,1.4,30.58,NNE,20,6.0,10.0,69,0.00,,---,0.00,VWS V14.01,2013-01-24 17:21:00,
2013-01-24 11:26:00,9.6,1.5,30.57,North,351,5.0,10.0,69,0.00,,---,0.00,VWS V14.01,2013-01-24 17:26:00,
2013-01-24 11:31:00,9.9,1.8,30.56,North,356,5.0,10.0,69,0.00,,---,0.00,VWS V14.01,2013-01-24 17:31:00,
2013-01-24 11:36:00,10.2,1.8,30.56,NNW,327,7.0,10.0,68,0.00,,---,0.00,VWS V14.01,2013-01-24 17:36:00,
2013-01-24 11:41:00,10.3,2.2,30.55,North,352,3.0,10.0,69,0.00,,---,0.00,VWS V14.01,2013-01-24 17:41:00,
2013-01-24 11:46:00,10.7,2.5,30.55,NW,310,5.0,10.0,69,0.00,,---,0.00,VWS V14.01,2013-01-24 17:46:00,
2013-01-24 11:51:00,11.1,2.9,30.55,North,7,7.0,10.0,69,0.00,,---,0.00,VWS V14.01,2013-01-24 17:51:00,
2013-01-24 11:56:00,11.3,2.8,30.55,NNW,346,6.0,11.0,68,0.00,,---,0.00,VWS V14.01,2013-01-24 17:56:00,
2013-01-24 12:01:00,11.6,2.8,30.55,North,349,3.0,11.0,67,0.00,,---,0.00,VWS V14.01,2013-01-24 18:01:00,
2013-01-24 12:06:00,12.1,2.9,30.54,NNW,348,5.0,9.0,66,0.00,,---,0.00,VWS V14.01,2013-01-24 18:06:00,
2013-01-24 12:11:00,12.2,2.4,30.54,North,355,4.0,12.0,64,0.00,,---,0.00,VWS V14.01,2013-01-24 18:11:00,
2013-01-24 12:16:00,12.1,2.3,30.54,NNE,29,4.0,12.0,64,0.00,,---,0.00,VWS V14.01,2013-01-24 18:16:00,
2013-01-24 12:21:00,12.4,2.9,30.54,NE,53,2.0,12.0,65,0.00,,---,0.00,VWS V14.01,2013-01-24 18:21:00,
2013-01-24 12:26:00,12.8,3.3,30.54,North,5,3.0,12.0,65,0.00,,---,0.00,VWS V14.01,2013-01-24 18:26:00,
2013-01-24 12:31:00,13.0,3.5,30.52,NNE,21,3.0,12.0,65,0.00,,---,0.00,VWS V14.01,2013-01-24 18:31:00,
2013-01-24 12:36:00,13.2,3.3,30.51,NE,40,6.0,11.0,64,0.00,,---,0.00,VWS V14.01,2013-01-24 18:36:00,
2013-01-24 12:41:00,13.1,3.2,30.50,NW,315,11.0,12.0,64,0.00,,---,0.00,VWS V14.01,2013-01-24 18:41:00,
2013-01-24 12:46:00,13.1,2.9,30.50,NNE,24,5.0,12.0,63,0.00,,---,0.00,VWS V14.01,2013-01-24 18:46:00,
2013-01-24 12:51:00,13.3,2.7,30.49,NNE,23,6.0,12.0,62,0.00,,---,0.00,VWS V14.01,2013-01-24 18:51:00,
2013-01-24 12:56:00,13.4,2.8,30.49,NNE,19,8.0,12.0,62,0.00,,---,0.00,VWS V14.01,2013-01-24 18:56:00,
2013-01-24 13:01:00,13.3,2.7,30.49,NE,37,9.0,13.0,62,0.00,,---,0.00,VWS V14.01,2013-01-24 19:01:00,
2013-01-24 13:06:00,13.4,3.2,30.48,NNE,23,9.0,11.0,63,0.00,,---,0.00,VWS V14.01,2013-01-24 19:06:00,
2013-01-24 13:11:00,13.5,3.3,30.47,North,11,4.0,11.0,63,0.00,,---,0.00,VWS V14.01,2013-01-24 19:11:00,
2013-01-24 13:16:00,13.7,3.5,30.47,East,85,4.0,11.0,63,0.00,,---,0.00,VWS V14.01,2013-01-24 19:16:00,
2013-01-24 13:21:00,13.9,3.3,30.48,North,353,5.0,11.0,62,0.00,,---,0.00,VWS V14.01,2013-01-24 19:21:00,
2013-01-24 13:26:00,14.0,3.7,30.47,NNW,344,6.0,11.0,63,0.00,,---,0.00,VWS V14.01,2013-01-24 19:26:00,
2013-01-24 13:31:00,14.1,3.8,30.46,North,349,7.0,11.0,63,0.00,,---,0.00,VWS V14.01,2013-01-24 19:31:00,
2013-01-24 13:36:00,14.3,4.0,30.46,NNE,12,6.0,10.0,63,0.00,,---,0.00,VWS V14.01,2013-01-24 19:36:00,
2013-01-24 13:41:00,14.3,4.0,30.45,North,353,4.0,10.0,63,0.00,,---,0.00,VWS V14.01,2013-01-24 19:41:00,
2013-01-24 13:46:00,14.4,4.1,30.45,NE,37,8.0,10.0,63,0.00,,---,0.00,VWS V14.01,2013-01-24 19:46:00,
2013-01-24 13:51:00,14.7,4.1,30.45,NNE,13,5.0,10.0,62,0.00,,---,0.00,VWS V14.01,2013-01-24 19:51:00,
2013-01-24 13:56:00,14.8,3.8,30.44,North,355,5.0,10.0,61,0.00,,---,0.00,VWS V14.01,2013-01-24 19:56:00,
2013-01-24 14:01:00,14.9,3.5,30.44,North,357,5.0,10.0,60,0.00,,---,0.00,VWS V14.01,2013-01-24 20:01:00,
2013-01-24 14:06:00,15.0,4.0,30.43,North,349,7.0,9.0,61,0.00,,---,0.00,VWS V14.01,2013-01-24 20:06:00,
2013-01-24 14:11:00,15.2,3.8,30.42,NNE,16,3.0,12.0,60,0.00,,---,0.00,VWS V14.01,2013-01-24 20:11:00,
2013-01-24 14:16:00,15.2,3.8,30.42,East,90,3.0,12.0,60,0.00,,---,0.00,VWS V14.01,2013-01-24 20:16:00,
2013-01-24 14:21:00,15.3,3.9,30.41,NE,34,5.0,12.0,60,0.00,,---,0.00,VWS V14.01,2013-01-24 20:21:00,
2013-01-24 14:26:00,15.4,4.0,30.40,North,357,9.0,12.0,60,0.00,,---,0.00,VWS V14.01,2013-01-24 20:26:00,
2013-01-24 14:31:00,15.4,4.0,30.40,East,88,4.0,13.0,60,0.00,,---,0.00,VWS V14.01,2013-01-24 20:31:00,
2013-01-24 14:36:00,15.5,4.1,30.40,NE,45,10.0,11.0,60,0.00,,---,0.00,VWS V14.01,2013-01-24 20:36:00,
2013-01-24 14:41:00,15.8,4.4,30.40,NNE,27,9.0,11.0,60,0.00,,---,0.00,VWS V14.01,2013-01-24 20:41:00,
2013-01-24 14:46:00,15.9,4.5,30.39,NNW,338,6.0,11.0,60,0.00,,---,0.00,VWS V14.01,2013-01-24 20:46:00,
2013-01-24 14:51:00,16.0,4.2,30.40,ENE,64,4.0,11.0,59,0.00,,---,0.00,VWS V14.01,2013-01-24 20:51:00,
2013-01-24 14:56:00,16.2,4.4,30.40,North,349,5.0,12.0,59,0.00,,---,0.00,VWS V14.01,2013-01-24 20:56:00,
2013-01-24 15:01:00,16.6,4.8,30.40,NE,37,3.0,12.0,59,0.00,,---,0.00,VWS V14.01,2013-01-24 21:01:00,
2013-01-24 15:06:00,16.8,5.0,30.40,North,350,4.0,11.0,59,0.00,,---,0.00,VWS V14.01,2013-01-24 21:06:00,
2013-01-24 15:11:00,16.9,4.7,30.39,NNE,17,3.0,12.0,58,0.00,,---,0.00,VWS V14.01,2013-01-24 21:11:00,
2013-01-24 15:16:00,17.2,5.0,30.39,North,9,6.0,12.0,58,0.00,,---,0.00,VWS V14.01,2013-01-24 21:16:00,
2013-01-24 15:21:00,17.6,5.3,30.39,ENE,77,3.0,12.0,58,0.00,,---,0.00,VWS V14.01,2013-01-24 21:21:00,
2013-01-24 15:26:00,17.8,5.2,30.39,East,87,2.0,12.0,57,0.00,,---,0.00,VWS V14.01,2013-01-24 21:26:00,
2013-01-24 15:31:00,18.0,5.3,30.39,ESE,120,3.0,12.0,57,0.00,,---,0.00,VWS V14.01,2013-01-24 21:31:00,
2013-01-24 15:36:00,18.2,5.2,30.39,NE,35,5.0,14.0,56,0.00,,---,0.00,VWS V14.01,2013-01-24 21:36:00,
2013-01-24 15:41:00,18.4,5.3,30.38,North,350,2.0,14.0,56,0.00,,---,0.00,VWS V14.01,2013-01-24 21:41:00,
2013-01-24 15:46:00,18.6,5.5,30.37,NNE,30,8.0,14.0,56,0.00,,---,0.00,VWS V14.01,2013-01-24 21:46:00,
2013-01-24 15:51:00,18.7,5.6,30.37,NNW,345,3.0,14.0,56,0.00,,---,0.00,VWS V14.01,2013-01-24 21:51:00,
2013-01-24 15:56:00,18.9,5.8,30.36,North,359,6.0,14.0,56,0.00,,---,0.00,VWS V14.01,2013-01-24 21:56:00,
2013-01-24 16:01:00,19.2,6.1,30.35,NNE,24,9.0,14.0,56,0.00,,---,0.00,VWS V14.01,2013-01-24 22:01:00,
2013-01-24 16:06:00,19.6,6.1,30.36,NE,38,2.0,9.0,55,0.00,,---,0.00,VWS V14.01,2013-01-24 22:06:00,
2013-01-24 16:11:00,19.8,5.8,30.36,NE,49,4.0,10.0,54,0.00,,---,0.00,VWS V14.01,2013-01-24 22:11:00,
2013-01-24 16:16:00,20.0,6.0,30.35,NW,319,4.0,12.0,54,0.00,,---,0.00,VWS V14.01,2013-01-24 22:16:00,
2013-01-24 16:21:00,20.0,6.0,30.35,ENE,75,4.0,12.0,54,0.00,,---,0.00,VWS V14.01,2013-01-24 22:21:00,
2013-01-24 16:26:00,20.2,6.2,30.35,NE,54,3.0,12.0,54,0.00,,---,0.00,VWS V14.01,2013-01-24 22:26:00,
2013-01-24 16:31:00,20.4,5.2,30.35,NE,42,3.0,12.0,51,0.00,,---,0.00,VWS V14.01,2013-01-24 22:31:00,
2013-01-24 16:36:00,20.4,4.7,30.34,NW,326,3.0,10.0,50,0.00,,---,0.00,VWS V14.01,2013-01-24 22:36:00,
2013-01-24 16:41:00,20.5,4.8,30.33,NNW,334,3.0,10.0,50,0.00,,---,0.00,VWS V14.01,2013-01-24 22:41:00,
2013-01-24 16:46:00,20.5,4.8,30.33,ENE,64,8.0,11.0,50,0.00,,---,0.00,VWS V14.01,2013-01-24 22:46:00,
2013-01-24 16:51:00,20.5,4.8,30.33,North,7,6.0,11.0,50,0.00,,---,0.00,VWS V14.01,2013-01-24 22:51:00,
2013-01-24 16:56:00,20.4,5.2,30.32,NNW,342,4.0,11.0,51,0.00,,---,0.00,VWS V14.01,2013-01-24 22:56:00,
2013-01-24 17:01:00,20.3,5.1,30.33,North,353,7.0,11.0,51,0.00,,---,0.00,VWS V14.01,2013-01-24 23:01:00,
2013-01-24 17:06:00,20.2,5.0,30.32,NNE,13,8.0,10.0,51,0.00,,---,0.00,VWS V14.01,2013-01-24 23:06:00,
2013-01-24 17:11:00,20.3,5.1,30.33,NE,45,10.0,15.0,51,0.00,,---,0.00,VWS V14.01,2013-01-24 23:11:00,
2013-01-24 17:16:00,20.3,5.5,30.34,NE,36,3.0,15.0,52,0.00,,---,0.00,VWS V14.01,2013-01-24 23:16:00,
2013-01-24 17:21:00,20.4,5.6,30.34,North,7,6.0,15.0,52,0.00,,---,0.00,VWS V14.01,2013-01-24 23:21:00,
2013-01-24 17:26:00,20.4,5.2,30.34,NNE,25,3.0,15.0,51,0.00,,---,0.00,VWS V14.01,2013-01-24 23:26:00,
2013-01-24 17:31:00,20.5,5.7,30.34,North,5,4.0,15.0,52,0.00,,---,0.00,VWS V14.01,2013-01-24 23:31:00,
2013-01-24 17:36:00,20.5,5.7,30.34,ESE,112,7.0,11.0,52,0.00,,---,0.00,VWS V14.01,2013-01-24 23:36:00,
2013-01-24 17:41:00,20.7,5.9,30.34,NNE,33,5.0,11.0,52,0.00,,---,0.00,VWS V14.01,2013-01-24 23:41:00,
2013-01-24 17:46:00,20.7,5.4,30.34,NNE,16,8.0,11.0,51,0.00,,---,0.00,VWS V14.01,2013-01-24 23:46:00,
2013-01-24 17:51:00,20.8,5.5,30.34,NE,51,4.0,11.0,51,0.00,,---,0.00,VWS V14.01,2013-01-24 23:51:00,
2013-01-24 17:56:00,20.8,6.0,30.33,NNE,30,4.0,11.0,52,0.00,,---,0.00,VWS V14.01,2013-01-24 23:56:00,
2013-01-24 18:01:00,20.8,6.0,30.33,North,350,6.0,11.0,52,0.00,,---,0.00,VWS V14.01,2013-01-25 00:01:00,
2013-01-24 18:06:00,20.8,5.5,30.33,NE,45,6.0,10.0,51,0.00,,---,0.00,VWS V14.01,2013-01-25 00:06:00,
2013-01-24 18:11:00,20.8,5.5,30.33,ENE,76,4.0,10.0,51,0.00,,---,0.00,VWS V14.01,2013-01-25 00:11:00,
2013-01-24 18:16:00,20.7,5.4,30.34,NNW,345,4.0,14.0,51,0.00,,---,0.00,VWS V14.01,2013-01-25 00:16:00,
2013-01-24 18:21:00,20.6,5.3,30.34,NNE,23,6.0,14.0,51,0.00,,---,0.00,VWS V14.01,2013-01-25 00:21:00,
2013-01-24 18:26:00,20.6,5.8,30.34,NE,36,6.0,14.0,52,0.00,,---,0.00,VWS V14.01,2013-01-25 00:26:00,
2013-01-24 18:31:00,20.6,6.2,30.35,NNE,23,4.0,14.0,53,0.00,,---,0.00,VWS V14.01,2013-01-25 00:31:00,
2013-01-24 18:36:00,20.5,6.1,30.35,ENE,67,6.0,10.0,53,0.00,,---,0.00,VWS V14.01,2013-01-25 00:36:00,
2013-01-24 18:41:00,20.6,6.2,30.35,ENE,76,4.0,10.0,53,0.00,,---,0.00,VWS V14.01,2013-01-25 00:41:00,
2013-01-24 18:46:00,20.6,6.2,30.35,NNE,20,5.0,11.0,53,0.00,,---,0.00,VWS V14.01,2013-01-25 00:46:00,
2013-01-24 18:51:00,20.6,6.6,30.35,East,91,2.0,11.0,54,0.00,,---,0.00,VWS V14.01,2013-01-25 00:51:00,
2013-01-24 18:56:00,20.7,6.7,30.34,ENE,67,6.0,11.0,54,0.00,,---,0.00,VWS V14.01,2013-01-25 00:56:00,
2013-01-24 19:01:00,20.7,7.1,30.34,NE,52,6.0,12.0,55,0.00,,---,0.00,VWS V14.01,2013-01-25 01:01:00,
2013-01-24 19:06:00,20.8,7.2,30.33,East,87,3.0,9.0,55,0.00,,---,0.00,VWS V14.01,2013-01-25 01:06:00,
2013-01-24 19:11:00,20.8,7.2,30.33,East,80,5.0,10.0,55,0.00,,---,0.00,VWS V14.01,2013-01-25 01:11:00,
2013-01-24 19:16:00,20.8,6.8,30.33,North,9,7.0,13.0,54,0.00,,---,0.00,VWS V14.01,2013-01-25 01:16:00,
2013-01-24 19:21:00,20.8,7.2,30.33,East,88,4.0,13.0,55,0.00,,---,0.00,VWS V14.01,2013-01-25 01:21:00,
2013-01-24 19:26:00,20.8,7.6,30.33,ENE,74,5.0,13.0,56,0.00,,---,0.00,VWS V14.01,2013-01-25 01:26:00,
2013-01-24 19:31:00,20.8,7.6,30.33,ENE,64,7.0,13.0,56,0.00,,---,0.00,VWS V14.01,2013-01-25 01:31:00,
2013-01-24 19:36:00,20.8,7.6,30.34,East,80,5.0,10.0,56,0.00,,---,0.00,VWS V14.01,2013-01-25 01:36:00,
2013-01-24 19:41:00,20.7,7.5,30.34,East,84,6.0,10.0,56,0.00,,---,0.00,VWS V14.01,2013-01-25 01:41:00,
2013-01-24 19:46:00,20.6,7.8,30.33,East,81,11.0,11.0,57,0.00,,---,0.00,VWS V14.01,2013-01-25 01:46:00,
2013-01-24 19:51:00,20.4,8.0,30.33,ENE,73,2.0,11.0,58,0.00,,---,0.00,VWS V14.01,2013-01-25 01:51:00,
2013-01-24 19:56:00,20.4,8.0,30.34,ENE,59,2.0,11.0,58,0.00,,---,0.00,VWS V14.01,2013-01-25 01:56:00,
2013-01-24 20:01:00,20.2,8.2,30.34,East,85,3.0,11.0,59,0.00,,---,0.00,VWS V14.01,2013-01-25 02:01:00,
2013-01-24 20:06:00,20.1,8.1,30.33,East,83,1.0,5.0,59,0.00,,---,0.00,VWS V14.01,2013-01-25 02:06:00,
2013-01-24 20:11:00,20.0,8.4,30.34,East,85,1.0,5.0,60,0.00,,---,0.00,VWS V14.01,2013-01-25 02:11:00,
2013-01-24 20:16:00,19.9,8.3,30.33,East,82,2.0,6.0,60,0.00,,---,0.00,VWS V14.01,2013-01-25 02:16:00,
2013-01-24 20:21:00,19.8,8.5,30.34,East,83,4.0,6.0,61,0.00,,---,0.00,VWS V14.01,2013-01-25 02:21:00,
2013-01-24 20:26:00,19.8,8.5,30.34,East,87,3.0,6.0,61,0.00,,---,0.00,VWS V14.01,2013-01-25 02:26:00,
2013-01-24 20:31:00,19.7,8.8,30.34,East,92,3.0,6.0,62,0.00,,---,0.00,VWS V14.01,2013-01-25 02:31:00,
2013-01-24 20:36:00,19.7,8.8,30.34,East,82,2.0,6.0,62,0.00,,---,0.00,VWS V14.01,2013-01-25 02:36:00,
2013-01-24 20:41:00,19.7,8.8,30.34,ENE,59,6.0,6.0,62,0.00,,---,0.00,VWS V14.01,2013-01-25 02:41:00,
2013-01-24 20:46:00,19.8,8.9,30.34,East,94,2.0,7.0,62,0.00,,---,0.00,VWS V14.01,2013-01-25 02:46:00,
2013-01-24 20:51:00,19.8,8.9,30.34,East,97,1.0,7.0,62,0.00,,---,0.00,VWS V14.01,2013-01-25 02:51:00,
2013-01-24 20:56:00,19.8,8.9,30.34,East,88,1.0,7.0,62,0.00,,---,0.00,VWS V14.01,2013-01-25 02:56:00,
2013-01-24 21:01:00,19.8,8.9,30.34,East,88,2.0,7.0,62,0.00,,---,0.00,VWS V14.01,2013-01-25 03:01:00,
2013-01-24 21:06:00,19.8,8.9,30.36,ENE,77,3.0,4.0,62,0.00,,---,0.00,VWS V14.01,2013-01-25 03:06:00,
2013-01-24 21:11:00,19.9,8.6,30.35,East,91,3.0,6.0,61,0.00,,---,0.00,VWS V14.01,2013-01-25 03:11:00,
2013-01-24 21:16:00,19.9,9.0,30.35,East,88,2.0,6.0,62,0.00,,---,0.00,VWS V14.01,2013-01-25 03:16:00,
2013-01-24 21:21:00,19.8,8.9,30.35,East,84,2.0,6.0,62,0.00,,---,0.00,VWS V14.01,2013-01-25 03:21:00,
2013-01-24 21:26:00,19.8,8.9,30.35,East,83,2.0,6.0,62,0.00,,---,0.00,VWS V14.01,2013-01-25 03:26:00,
2013-01-24 21:31:00,19.8,8.9,30.36,East,81,4.0,6.0,62,0.00,,---,0.00,VWS V14.01,2013-01-25 03:31:00,
2013-01-24 21:36:00,19.9,9.0,30.36,East,101,2.0,5.0,62,0.00,,---,0.00,VWS V14.01,2013-01-25 03:36:00,
2013-01-24 21:41:00,19.8,8.9,30.36,East,94,1.0,5.0,62,0.00,,---,0.00,VWS V14.01,2013-01-25 03:41:00,
2013-01-24 21:46:00,19.9,9.0,30.36,East,89,3.0,5.0,62,0.00,,---,0.00,VWS V14.01,2013-01-25 03:46:00,
2013-01-24 21:51:00,19.9,9.4,30.35,East,80,2.0,6.0,63,0.00,,---,0.00,VWS V14.01,2013-01-25 03:51:00,
2013-01-24 21:56:00,19.8,9.3,30.34,East,83,3.0,6.0,63,0.00,,---,0.00,VWS V14.01,2013-01-25 03:56:00,
2013-01-24 22:01:00,19.8,9.3,30.33,East,84,3.0,6.0,63,0.00,,---,0.00,VWS V14.01,2013-01-25 04:01:00,
2013-01-24 22:06:00,19.8,9.3,30.33,East,92,2.0,7.0,63,0.00,,---,0.00,VWS V14.01,2013-01-25 04:06:00,
2013-01-24 22:11:00,19.9,9.4,30.34,ENE,74,7.0,7.0,63,0.00,,---,0.00,VWS V14.01,2013-01-25 04:11:00,
2013-01-24 22:16:00,19.9,9.7,30.35,ESE,103,1.0,7.0,64,0.00,,---,0.00,VWS V14.01,2013-01-25 04:16:00,
2013-01-24 22:21:00,19.9,9.7,30.35,East,83,3.0,7.0,64,0.00,,---,0.00,VWS V14.01,2013-01-25 04:21:00,
2013-01-24 22:26:00,19.9,9.7,30.34,East,80,1.0,7.0,64,0.00,,---,0.00,VWS V14.01,2013-01-25 04:26:00,
2013-01-24 22:31:00,20.0,9.8,30.34,East,85,2.0,7.0,64,0.00,,---,0.00,VWS V14.01,2013-01-25 04:31:00,
2013-01-24 22:36:00,20.0,9.8,30.35,East,91,1.0,5.0,64,0.00,,---,0.00,VWS V14.01,2013-01-25 04:36:00,
2013-01-24 22:41:00,19.9,9.7,30.34,East,87,4.0,5.0,64,0.00,,---,0.00,VWS V14.01,2013-01-25 04:41:00,
2013-01-24 22:46:00,19.9,10.1,30.35,East,97,2.0,5.0,65,0.00,,---,0.00,VWS V14.01,2013-01-25 04:46:00,
2013-01-24 22:51:00,19.9,10.1,30.35,East,82,4.0,5.0,65,0.00,,---,0.00,VWS V14.01,2013-01-25 04:51:00,
2013-01-24 22:56:00,19.9,10.1,30.35,East,87,2.0,6.0,65,0.00,,---,0.00,VWS V14.01,2013-01-25 04:56:00,
2013-01-24 23:00:00,19.9,10.1,30.35,East,81,5.0,6.0,65,0.00,,---,0.00,VWS V14.01,2013-01-25 05:00:00,
2013-01-24 23:01:00,20.0,10.1,30.35,ENE,73,4.0,6.0,65,0.00,,---,0.00,VWS V14.01,2013-01-25 05:01:00,
2013-01-24 23:06:00,20.0,10.1,30.35,East,94,2.0,4.0,65,0.00,,---,0.00,VWS V14.01,2013-01-25 05:06:00,
2013-01-24 23:11:00,20.0,10.1,30.37,East,99,2.0,4.0,65,0.00,,---,0.00,VWS V14.01,2013-01-25 05:11:00,
2013-01-24 23:16:00,20.0,10.1,30.36,East,90,2.0,6.0,65,0.00,,---,0.00,VWS V14.01,2013-01-25 05:16:00,
2013-01-24 23:21:00,20.1,10.6,30.36,ENE,74,3.0,6.0,66,0.00,,---,0.00,VWS V14.01,2013-01-25 05:21:00,
2013-01-24 23:26:00,20.1,10.2,30.38,ESE,111,2.0,6.0,65,0.00,,---,0.00,VWS V14.01,2013-01-25 05:26:00,
2013-01-24 23:31:00,20.0,10.1,30.37,East,90,3.0,6.0,65,0.00,,---,0.00,VWS V14.01,2013-01-25 05:31:00,
2013-01-24 23:36:00,20.1,10.6,30.37,East,97,1.0,3.0,66,0.00,,---,0.00,VWS V14.01,2013-01-25 05:36:00,
2013-01-24 23:41:00,20.0,10.5,30.37,East,84,1.0,4.0,66,0.00,,---,0.00,VWS V14.01,2013-01-25 05:41:00,
2013-01-24 23:46:00,20.0,10.5,30.36,NE,52,5.0,6.0,66,0.00,,---,0.00,VWS V14.01,2013-01-25 05:46:00,
2013-01-24 23:51:00,20.0,10.5,30.36,East,87,2.0,6.0,66,0.00,,---,0.00,VWS V14.01,2013-01-25 05:51:00,
2013-01-24 23:56:00,19.9,10.4,30.35,East,80,2.0,6.0,66,0.00,,---,0.00,VWS V14.01,2013-01-25 05:56:00,